Theta_e
292 291 291 291 290 290 289 289 289 288 288 287 286 286 285 285 285 285 285 285 285 285 284 284 284 284 284 284 283 283 283 283 283 284 284 285 285 285 285 285 286 287 287
291 290 290 290 290 289 289 289 288 288 288 287 286 285 285 284 284 284 284 284 284 284 284 284 284 284 283 282 281 281 281 281 281 282 282 283 283 284 284 285 285 286 286
290 290 290 290 289 289 289 288 288 288 288 288 287 285 284 284 284 284 284 284 283 283 284 284 284 283 283 282 281 280 279 279 280 280 281 281 282 282 282 283 284 284 285
290 289 289 289 289 289 289 288 288 288 288 288 287 285 284 283 283 283 283 283 283 283 283 283 283 282 281 280 280 279 277 277 278 278 279 280 281 281 281 281 282 283 285
289 289 289 289 289 289 289 288 288 288 288 288 287 286 284 283 283 283 282 282 282 282 282 282 281 281 280 279 277 276 275 275 275 276 276 277 278 279 280 281 281 281 282
289 289 289 289 289 289 289 288 288 288 288 288 287 286 284 283 282 282 282 282 282 282 281 281 280 279 278 277 276 274 273 274 274 275 275 275 276 277 277 278 278 278 279
289 289 289 289 289 289 288 288 288 287 287 287 286 286 285 283 282 282 281 281 281 281 280 280 279 277 276 275 273 272 273 273 274 275 274 275 275 276 276 276 276 277 277
289 289 289 289 289 289 288 288 287 287 287 286 286 285 286 282 281 281 281 281 280 280 279 278 277 276 275 273 272 273 274 274 274 274 274 274 275 275 275 276 276 277 277
290 290 290 290 289 288 288 287 287 286 286 285 285 286 283 281 280 280 280 280 279 279 278 277 275 274 273 273 274 275 274 274 275 276 276 276 276 277 277 277 277 277 277
290 290 289 289 288 288 287 287 286 285 285 285 286 284 282 281 280 279 279 279 278 277 276 275 273 273 274 275 275 275 276 276 276 276 276 277 277 276 276 276 276 276 276
290 289 289 289 288 288 287 286 285 285 284 285 284 283 281 280 279 279 278 278 276 274 274 274 273 273 274 275 275 275 275 275 274 275 275 276 276 276 276 276 276 276 276
290 289 289 288 288 287 286 285 285 284 284 284 283 282 280 279 279 278 278 277 274 273 273 274 273 273 273 273 273 273 272 273 273 274 274 275 274 275 275 275 275 275 275
289 289 288 288 287 286 285 284 283 283 284 283 282 280 278 278 278 277 277 275 273 273 273 273 272 273 273 274 274 273 273 273 273 273 272 273 273 273 274 275 275 275 274
289 288 288 287 286 285 284 283 283 283 282 281 279 278 278 277 277 276 275 274 273 273 273 272 272 272 273 273 273 273 272 272 272 272 270 271 273 274 275 274 273 273 273
288 288 287 286 285 284 283 283 283 282 281 279 277 277 277 276 275 273 272 273 273 273 272 272 272 272 272 272 272 272 271 271 271 269 270 272 273 273 274 274 273 273 273
288 287 286 285 284 283 282 282 282 281 279 278 277 275 275 274 272 271 272 272 272 272 271 271 271 272 271 271 271 271 271 270 270 271 271 270 271 272 273 274 272 272 273
287 286 285 283 282 282 282 281 280 279 277 276 275 275 275 274 273 270 270 271 271 271 271 271 271 271 271 271 270 270 270 270 270 270 270 271 271 271 271 271 272 273 273
285 284 283 282 281 281 281 280 278 277 276 275 274 274 274 273 272 271 269 269 271 270 270 270 270 271 270 270 270 270 270 270 270 270 270 270 270 269 271 272 272 272 273
283 282 281 281 280 279 278 277 276 275 275 274 273 272 272 272 272 271 270 271 270 270 270 270 270 270 270 270 270 270 270 270 270 270 270 270 269 269 271 272 272 273 274
280 280 280 279 277 275 275 274 274 273 273 272 272 271 270 271 271 270 270 270 269 269 269 269 270 270 270 270 270 270 270 270 270 270 270 270 269 270 271 271 272 273 274
279 277 276 275 275 274 273 272 271 271 271 270 270 270 269 269 270 270 269 269 269 269 269 269 270 270 269 269 269 269 270 270 270 270 270 270 270 270 271 271 272 273 273
275 275 274 273 272 271 270 270 269 269 269 268 268 268 267 268 269 268 268 268 268 269 269 269 269 269 268 268 269 269 269 269 269 269 270 270 270 270 271 271 272 273 273
273 273 272 271 270 269 268 268 267 267 267 266 266 267 267 267 267 267 268 268 268 268 268 267 267 267 267 267 268 268 269 269 269 269 269 270 270 271 271 271 271 272 273
271 271 270 269 268 267 267 266 265 265 265 265 265 266 267 267 267 267 268 268 267 267 267 267 267 267 267 267 267 268 269 269 269 269 269 269 270 271 271 271 271 272 272
269 268 268 267 267 266 265 265 265 265 265 265 265 265 266 266 267 267 266 266 266 267 267 267 267 267 267 267 267 267 268 269 269 269 269 269 270 270 270 271 271 271 271
267 267 267 266 265 265 265 265 265 264 265 265 265 265 265 266 266 265 265 266 266 267 267 267 267 267 267 267 267 267 268 268 269 269 269 269 269 270 270 270 270 270 271
Wind_Speed
14 11 8 6 4 1 2 4 7 10 12 14 16 18 19 20 22 23 25 27 28 30 31 32 32 32 32 31 30 29 27 24 30 39 35 42 45 45 46 46 46 45 43
15 13 10 8 5 4 4 6 8 11 14 16 17 18 20 21 23 25 27 28 30 31 33 33 34 34 34 32 30 29 27 26 28 37 41 33 36 40 42 44 45 46 46
18 15 13 10 8 7 8 9 10 13 15 17 19 20 22 23 26 27 28 30 30 31 32 34 35 37 37 35 34 33 32 29 28 33 44 37 33 32 38 37 38 40 43
20 18 15 12 11 12 12 13 14 16 17 19 21 22 23 25 27 28 29 31 31 32 33 34 35 36 36 37 37 34 30 28 28 30 36 40 32 28 28 33 37 32 29
24 21 17 15 15 16 16 18 19 19 19 20 22 23 24 26 28 29 30 31 32 33 33 34 35 36 38 36 33 31 29 29 30 31 35 36 35 30 26 24 30 33 37
26 23 20 19 20 20 22 23 23 22 21 21 23 25 27 28 30 30 31 32 33 34 35 36 35 35 34 33 31 26 25 29 32 33 36 35 34 29 30 32 33 33 39
27 24 23 24 25 25 25 26 26 25 23 23 24 27 30 30 31 31 32 32 33 34 35 35 35 33 32 31 28 26 26 25 27 30 35 34 35 29 28 29 30 33 38
26 26 26 27 28 28 27 27 27 27 25 25 27 29 31 30 31 31 32 32 32 33 33 33 33 32 30 28 29 30 31 31 30 30 32 35 34 33 32 33 37 39 40
26 25 27 28 28 29 29 28 28 27 26 27 28 31 30 30 30 31 31 31 32 33 32 31 29 29 27 28 33 37 37 37 35 35 36 34 33 32 31 33 36 35 38
22 24 26 26 26 28 29 28 28 27 28 28 30 31 31 31 29 29 30 30 30 30 30 29 27 27 29 30 33 37 44 41 37 40 43 41 36 33 28 29 32 36 38
21 24 27 28 28 29 29 28 27 28 29 30 31 31 29 29 29 29 29 27 26 26 26 28 27 27 29 31 31 35 39 39 38 36 39 38 36 34 32 32 31 32 37
25 28 30 31 30 30 28 27 27 28 29 31 31 30 30 28 28 28 28 26 23 24 26 28 28 28 33 33 32 31 30 30 33 32 31 32 29 29 30 27 27 30 35
28 31 32 30 29 28 27 27 28 28 30 30 30 29 28 28 29 28 25 23 22 20 24 26 30 36 33 32 29 28 28 27 26 26 26 26 24 25 27 28 30 31 33
29 29 29 28 27 27 27 27 28 29 29 29 28 28 28 29 29 26 23 23 21 23 27 36 33 30 29 28 26 24 24 23 23 24 23 25 27 27 27 28 28 27 29
27 27 27 27 27 27 27 27 28 28 28 28 27 27 27 29 25 21 20 20 22 26 29 30 28 28 28 26 25 24 24 23 22 21 23 25 26 25 27 26 25 24 24
26 26 26 26 27 27 27 28 28 28 28 28 27 26 26 26 22 22 19 19 22 30 28 27 26 25 25 25 25 25 25 24 25 25 24 23 24 25 27 26 24 24 27
25 25 26 27 27 27 28 28 28 26 27 27 26 26 27 29 28 20 19 17 27 25 22 23 23 23 23 24 24 24 25 25 26 27 26 25 24 25 25 26 25 26 28
25 26 26 27 28 29 29 29 28 29 30 27 24 27 28 28 25 22 17 20 23 19 20 21 21 21 22 23 23 24 25 25 26 28 28 25 24 26 28 28 26 26 29
24 25 26 27 28 28 28 29 29 30 30 31 29 22 23 27 25 20 20 22 22 21 20 20 21 21 22 23 23 24 24 25 26 28 30 28 26 28 29 28 28 27 28
24 26 27 27 27 28 29 29 30 30 31 30 29 24 21 23 24 21 19 21 21 21 22 23 22 23 23 23 24 24 24 25 26 27 30 29 28 30 29 28 27 28 28
23 24 25 27 27 28 30 30 29 30 31 29 27 23 21 22 25 22 19 19 21 21 22 23 24 24 23 23 23 23 23 23 24 26 29 30 31 31 28 26 26 25 26
21 22 25 26 27 28 28 29 29 29 29 28 25 22 21 22 24 22 20 20 22 22 23 23 23 22 21 21 22 22 22 21 21 25 28 29 31 30 27 26 25 24 23
21 22 23 24 25 26 27 27 27 27 26 26 24 23 22 22 23 23 22 22 23 22 21 21 21 20 19 20 20 20 21 19 19 23 27 29 30 28 26 24 23 22 21
19 20 21 22 23 24 24 24 23 24 23 24 23 23 23 23 23 23 22 21 22 21 19 20 20 19 18 18 18 18 17 16 16 21 23 26 25 25 24 22 21 20 20
18 18 18 18 18 18 19 20 21 21 21 21 22 22 22 22 22 21 20 20 21 20 19 19 19 18 18 18 17 16 16 14 11 18 22 20 19 20 20 21 21 20 18
16 16 16 17 17 18 20 21 21 20 20 20 20 20 21 20 20 20 20 20 21 21 21 20 18 18 18 18 17 15 14 13 9 12 17 15 15 17 18 19 19 19 19
Wind_Direction
189 190 196 203 208 251 323 329 329 330 331 327 325 323 323 325 325 326 328 328 328 327 327 325 323 319 316 312 306 300 293 286 283 287 285 288 288 290 292 292 288 286 283
201 204 208 222 234 251 283 305 314 318 322 323 319 318 320 321 322 323 324 325 325 325 325 324 320 317 314 311 307 301 295 290 287 289 292 291 288 287 288 290 291 286 284
211 213 219 228 241 261 277 291 301 311 317 317 315 316 319 320 321 321 321 321 321 320 320 319 316 313 311 309 306 301 296 292 287 285 291 292 290 292 293 288 289 289 286
218 220 228 237 251 263 274 280 293 303 309 312 313 313 316 317 317 317 318 318 318 318 317 315 313 311 309 308 305 301 299 296 294 289 289 293 294 296 290 291 294 292 287
222 225 231 241 254 265 271 279 283 290 298 306 309 310 312 313 314 316 316 316 315 316 315 313 312 311 310 307 305 301 297 295 294 293 291 293 293 294 291 292 283 285 282
226 229 236 246 256 267 271 275 276 279 287 297 305 309 311 312 312 313 314 315 316 316 315 313 312 311 311 308 303 296 293 295 294 290 290 292 294 295 293 286 285 289 288
228 233 241 251 259 266 272 274 272 273 282 291 301 307 310 309 307 310 312 314 315 314 312 312 312 313 313 308 303 299 296 295 290 291 288 287 290 292 291 289 286 285 287
230 236 245 255 262 267 270 271 269 272 282 292 298 302 306 304 305 308 311 313 313 311 311 312 310 313 312 306 306 306 305 299 295 291 288 290 289 291 288 288 290 290 290
233 243 251 258 263 266 268 268 270 275 283 290 298 304 303 303 305 308 310 312 311 311 311 313 311 310 309 309 307 304 302 302 306 306 304 289 284 284 282 285 283 284 285
239 254 257 257 264 267 269 271 274 279 285 293 299 300 300 300 305 306 309 309 308 308 309 312 313 308 308 307 304 303 302 302 305 301 300 299 296 294 284 273 272 275 280
259 258 254 256 260 265 267 271 276 280 285 291 296 297 296 299 302 305 308 310 308 307 308 308 310 311 311 306 301 295 295 300 299 291 289 290 290 286 283 282 278 275 276
261 259 257 257 258 263 268 272 276 280 287 293 294 293 295 299 301 305 308 308 303 303 307 309 309 310 307 309 307 303 302 299 293 297 297 298 295 290 288 286 280 275 272
265 260 256 255 259 265 269 272 276 281 287 289 289 291 294 297 299 303 305 306 306 306 305 301 302 315 318 318 318 312 307 306 305 303 302 301 300 296 293 291 290 285 280
264 258 253 255 261 265 268 271 275 281 284 285 286 290 293 296 300 303 310 317 317 311 305 303 312 316 321 324 327 326 324 319 313 308 304 303 305 305 305 305 299 297 293
259 252 250 255 260 263 267 271 276 279 280 281 284 286 290 295 301 306 307 306 310 300 298 307 315 320 324 329 332 337 338 335 326 317 312 313 314 313 315 315 306 300 290
250 248 253 257 259 263 267 272 275 278 277 280 285 286 288 291 288 295 299 298 294 286 299 308 315 320 324 329 334 337 340 341 338 329 323 320 319 321 319 319 316 301 292
248 250 253 255 260 265 268 271 274 273 275 279 280 282 284 285 285 287 289 293 279 290 296 305 310 317 322 327 331 334 336 341 341 341 334 329 328 327 323 316 311 306 299
245 250 253 259 263 266 269 271 272 274 277 275 275 280 284 281 279 281 285 276 288 290 295 300 307 313 317 322 326 329 333 337 341 342 341 338 336 330 324 321 316 307 305
248 252 257 262 265 266 268 269 271 273 277 281 285 281 276 274 276 277 271 282 286 290 293 296 302 308 312 315 319 323 327 334 337 341 343 342 339 330 326 322 319 316 316
254 258 261 264 266 268 270 271 273 276 277 280 282 283 272 270 272 270 270 274 278 286 292 296 301 304 308 310 313 317 322 329 334 338 342 343 340 334 330 326 324 322 319
258 262 266 268 271 272 273 274 276 277 279 279 279 277 273 267 267 271 269 271 277 282 288 292 297 301 305 308 310 314 320 324 330 335 341 343 344 339 335 331 329 326 325
265 268 271 273 275 276 276 277 278 278 278 278 276 271 267 264 269 272 273 274 278 283 287 291 295 300 305 308 309 312 318 324 329 336 338 342 345 339 337 336 334 332 331
273 275 276 278 280 281 282 282 281 279 278 276 274 270 266 265 267 270 273 276 279 282 285 289 292 297 302 305 307 311 315 323 330 335 338 344 341 341 341 340 338 336 336
279 281 283 285 286 285 285 286 284 281 278 276 274 272 269 269 269 272 273 275 278 280 284 286 289 294 298 299 303 307 309 316 324 333 341 339 339 345 347 346 346 344 341
286 287 289 289 288 287 287 288 288 286 284 280 277 275 273 272 273 273 274 275 276 280 282 283 285 289 292 294 300 304 306 307 316 337 339 333 339 348 355 358 359 359 357
287 288 288 287 286 286 288 290 289 288 286 283 280 277 276 275 275 276 277 277 279 282 283 283 283 284 285 288 294 299 305 305 291 335 329 335 347 355 359 1 4 9 13